This demonstration page uses our WeatherBlox Daily Observations layout. Learn more.

Left ArrowRight Arrow

Hourly Observations for May 17, 2020

Temp ( °F °C ) Dew Point ( °F °C ) Humidity (%) Winds ( mph kmh ) Pressure ( in mb ) Visibility ( mi km ) Precip ( " mm )
12:53 am 00:53 Mostly Cloudy 66 18.9 61 16.1 84 84 E 3 6 29.99 1016 10 16.0934 N/A
1:53 am 01:53 Cloudy with Light Rain 65 18.3 62 16.7 90 90 N N/A 30 1016 9 14.48406 0.01 0.254
2:53 am 02:53 Clear 64 17.8 62 16.7 93 93 E 3 6 29.97 1015 10 16.0934 0.001 0.001
3:53 am 03:53 Partly Cloudy 63 17.2 62 16.7 97 97 N N/A 29.95 1014 9 14.48406 N/A
4:53 am 04:53 Clear 62 16.7 61 16.1 96 96 N N/A 29.94 1014 10 16.0934 N/A
5:53 am 05:53 Mostly Clear 61 16.1 60 15.6 97 97 N N/A 29.93 1014 9 14.48406 N/A
6:53 am 06:53 Mostly Sunny 60 15.6 59 15 96 96 N N/A 29.94 1014 7 11.26538 N/A
7:53 am 07:53 Mostly Cloudy 65 18.3 61 16.1 87 87 E 3 6 29.95 1014 10 16.0934 N/A
8:53 am 08:53 Sunny 68 20 63 17.2 84 84 N N/A 29.96 1015 10 16.0934 N/A
9:53 am 09:53 Partly Cloudy 71 21.7 64 17.8 79 79 E 5 7 29.96 1015 10 16.0934 N/A
10:53 am 10:53 Sunny 75 23.9 65 18.3 71 71 N N/A 29.95 1014 10 16.0934 N/A
11:53 am 11:53 Sunny 78 25.6 63 17.2 60 60 VRB 5 7 29.94 1014 10 16.0934 N/A
12:53 pm 12:53 Sunny 81 27.2 63 17.2 54 54 SW 9 15 29.93 1013 10 16.0934 N/A
1:53 pm 13:53 Partly Cloudy 82 27.8 62 16.7 51 51 SSW 9 15 29.91 1013 10 16.0934 N/A
2:53 pm 14:53 Partly Cloudy 81 27.2 62 16.7 53 53 VRB 6 9 29.89 1012 10 16.0934 N/A
3:53 pm 15:53 Partly Cloudy 79 26.1 62 16.7 56 56 VRB 7 11 29.88 1012 10 16.0934 N/A
4:53 pm 16:53 Mostly Cloudy 79 26.1 63 17.2 58 58 SW 6 9 29.86 1011 10 16.0934 N/A
5:53 pm 17:53 Cloudy with Light Rain 74 23.3 63 17.2 69 69 SW 6 9 29.86 1011 10 16.0934 0.001 0.001
6:53 pm 18:53 Cloudy with Light Rain 71 21.7 67 19.4 87 87 N N/A 29.85 1011 10 16.0934 0.04 1.016
7:53 pm 19:53 Mostly Cloudy 69 20.6 66 18.9 90 90 N N/A 29.83 1010 10 16.0934 0.001 0.001
8:53 pm 20:53 Cloudy 68 20 66 18.9 93 93 N N/A 29.82 1010 10 16.0934 N/A
9:53 pm 21:53 Cloudy 68 20 66 18.9 93 93 ESE 3 6 29.82 1010 10 16.0934 N/A
10:53 pm 22:53 Mostly Cloudy 68 20 66 18.9 93 93 N N/A 29.81 1010 9 14.48406 N/A
11:53 pm 23:53 Mostly Clear 67 19.4 65 18.3 93 93 N N/A 29.8 1009 10 16.0934 N/A

Powered by AerisWeather